User: anonymous   Login
Location: Unspecified
(0.0000°N, 0.0000°E)
Time: 09:50:44
(UTC+00:00)
Language:

COSMOS 2453 - Orbit

View from above orbital plane
View from above orbital plane
View from above satellite
View from above satellite

Ground track
Ground track

The orbit is defined by the following mean orbital elements,

1 35500U          26104.16259742 +.00000000 +00000-0 -46840-4 0 00002
2 35500  82.4858 127.6849 0005931 313.7420  46.3168 12.41518482    09
Epoch (UTC): 14 April 2026 03:54:08
Eccentricity: 0.0005931
inclination: 82.4858°
perigee height: 1496 km
apogee height: 1505 km
right ascension of ascending node: 127.6849°
argument of perigee: 313.7420°
revolutions per day: 12.41518482
mean anomaly at epoch: 46.3168°

The dashed part of the orbit path shows where the satellite is in the earth's shadow,  

DLR